This demonstration page uses our WeatherBlox Daily Observations layout. Learn more.

Left ArrowRight Arrow

Hourly Observations for April 27, 2020

Temp ( °F °C ) Dew Point ( °F °C ) Humidity (%) Winds ( mph kmh ) Pressure ( in mb ) Visibility ( mi km ) Precip ( " mm )
12:52 am 00:52 Cloudy with Thunderstorms 59 15 47 8.3 64 64 SSE 17 28 30.00 1016 7 11 0.00 0.00
1:28 am 01:28 Mostly Cloudy 56 13.3 49 9.4 77 77 SSE 14 22 29.99 1016 10 16 0.01 0.25
1:52 am 01:52 Cloudy 56 13.3 49 9.4 77 77 SSE 12 19 29.98 1015 10 16 0.01 0.25
2:52 am 02:52 Partly Cloudy 59 15 45 7.2 60 60 SSE 16 26 29.96 1015 10 16 0.00 0.00
3:52 am 03:52 Clear 57 13.9 45 7.2 64 64 SSE 24 39 29.95 1014 10 16 0.00 0.00
4:52 am 04:52 Clear 58 14.4 45 7.2 62 62 SSE 20 31 29.93 1014 10 16 0.00 0.00
5:52 am 05:52 Mostly Clear 57 13.9 45 7.2 64 64 S 18 30 29.92 1013 10 16 0.00 0.00
6:52 am 06:52 Mostly Sunny 57 13.9 45 7.2 64 64 S 16 26 29.93 1013 10 16 0.00 0.00
7:52 am 07:52 Mostly Sunny 59 15 46 7.8 62 62 S 17 28 29.93 1013 10 16 0.00 0.00
8:52 am 08:52 Mostly Sunny 61 16.1 48 8.9 63 63 S 12 19 29.93 1014 10 16 0.00 0.00
9:52 am 09:52 Partly Cloudy 64 17.8 49 9.4 58 58 S 17 28 29.92 1013 10 16 0.00 0.00
10:52 am 10:52 Partly Cloudy 68 20 50 10 53 53 SW 14 22 29.91 1013 10 16 0.00 0.00
11:52 am 11:52 Partly Cloudy 72 22.2 50 10 46 46 WSW 12 19 29.90 1012 10 16 0.00 0.00
12:52 pm 12:52 Partly Cloudy 75 23.9 51 10.6 43 43 SW 9 15 29.88 1012 10 16 0.00 0.00
1:52 pm 13:52 Mostly Cloudy 77 25 50 10 39 39 SW 8 13 29.85 1011 10 16 0.00 0.00
2:52 pm 14:52 Mostly Cloudy 80 26.7 49 9.4 34 34 undefined N/A 29.83 1010 10 16 0.00 0.00
3:52 pm 15:52 Mostly Cloudy 79 26.1 47 8.3 32 32 WSW 5 7 29.82 1010 10 16 0.00 0.00
4:52 pm 16:52 Mostly Cloudy 81 27.2 47 8.3 30 30 E 7 11 29.80 1009 10 16 0.00 0.00
5:52 pm 17:52 Mostly Cloudy 81 27.2 45 7.2 28 28 Calm 29.80 1009 10 16 0.00 0.00
6:52 pm 18:52 Partly Cloudy 80 26.7 47 8.3 31 31 E 6 9 29.80 1009 10 16 0.00 0.00
7:52 pm 19:52 Mostly Cloudy 76 24.4 48 8.9 37 37 ESE 7 11 29.80 1009 10 16 0.00 0.00
8:52 pm 20:52 Cloudy 71 21.7 51 10.6 49 49 SSE 8 13 29.81 1010 10 16 0.00 0.00
9:52 pm 21:52 Cloudy 69 20.6 53 11.7 57 57 SE 8 13 29.82 1010 10 16 0.00 0.00
10:52 pm 22:52 Mostly Cloudy 68 20 53 11.7 59 59 SSE 9 15 29.82 1010 10 16 0.00 0.00
11:52 pm 23:52 Mostly Cloudy 66 18.9 54 12.2 65 65 SSE 10 17 29.80 1009 10 16 0.00 0.00

Powered by AerisWeather